Wind_Speed
38 37 36 35 35 35 34 34 33 33 33 33 32 32 32 32 32 32 32 32 32 33 33 33 34 34 34 35 35 36 36 36 36 36 36 36 38 39 39 39 40 40 40
38 38 37 36 35 34 34 34 33 33 33 32 32 32 32 32 32 32 32 32 33 33 33 34 34 34 35 35 36 36 36 36 36 36 36 37 38 39 39 39 40 40 40
39 38 38 37 36 35 34 33 33 33 33 32 32 32 31 31 31 31 31 32 33 33 33 34 34 34 35 35 35 35 35 36 36 36 37 37 37 37 37 38 39 39 40
40 39 38 37 36 35 34 33 33 33 33 32 32 31 31 31 31 31 32 32 33 33 33 33 34 34 34 34 35 35 35 35 36 37 37 37 37 37 36 36 37 38 38
40 39 38 37 36 35 34 34 33 33 32 32 32 32 31 32 32 32 32 33 33 33 33 33 34 34 34 35 34 34 34 35 36 36 36 36 36 37 36 35 35 36 37
39 39 38 37 37 36 35 34 33 33 33 32 32 32 32 32 32 32 33 33 33 33 33 34 34 34 34 34 34 35 35 35 35 35 35 36 36 36 37 36 35 35 35
39 38 38 37 36 36 35 34 34 33 33 33 32 32 32 32 32 33 33 33 33 34 34 34 34 35 35 34 34 35 35 34 34 34 35 35 36 36 37 37 36 36 35
38 39 38 38 37 36 35 35 34 34 34 33 33 33 33 33 33 33 33 33 33 34 34 34 35 35 35 35 34 35 34 34 33 34 34 35 35 36 37 37 37 37 36
38 39 38 38 37 36 36 35 35 35 34 34 34 34 33 33 33 33 33 33 34 34 34 34 34 34 34 34 34 34 34 34 34 34 34 34 35 36 37 37 37 37 37
37 38 38 38 38 37 36 36 36 35 35 35 35 34 34 33 33 33 33 34 34 34 34 33 33 34 34 34 34 33 33 34 34 34 34 34 34 35 36 35 36 36 36
36 37 38 38 37 37 36 36 36 36 35 35 35 34 34 34 33 33 33 33 33 33 33 33 33 33 33 34 34 33 33 34 34 34 34 34 34 34 34 35 35 35 35
35 36 37 37 37 37 36 36 36 36 35 35 35 35 34 34 34 34 33 33 33 33 33 33 33 33 33 34 34 33 33 33 33 34 34 34 34 34 33 34 34 34 34
34 35 36 36 36 36 36 36 36 36 36 35 35 35 34 34 34 34 34 33 33 33 33 33 33 33 34 34 34 34 33 33 33 33 33 33 33 33 33 33 33 33 33
33 34 34 35 36 36 35 35 36 36 36 36 35 35 35 35 34 34 34 33 34 34 33 33 32 32 33 33 34 33 32 32 32 32 32 32 32 33 33 33 33 33 33
33 33 34 34 35 34 35 35 35 35 35 35 35 35 35 35 34 34 34 34 34 34 34 33 32 32 32 32 33 32 32 32 31 31 31 31 32 32 32 32 32 32 32
33 33 34 34 34 34 34 34 35 35 35 35 35 35 35 34 34 34 34 34 34 34 34 33 32 32 32 31 31 31 31 31 31 30 30 30 31 31 31 32 32 31 30
31 32 34 34 33 33 34 34 34 34 34 34 34 34 35 34 33 34 34 34 34 34 34 33 32 31 31 30 30 31 31 31 30 30 30 30 30 30 31 31 30 29 29
30 32 33 34 34 34 34 34 34 34 34 34 34 34 34 34 33 33 33 33 33 32 32 32 31 31 30 30 30 30 30 30 30 30 30 30 30 30 30 29 28 27 26
29 30 32 33 34 34 34 34 34 34 34 34 33 33 33 33 32 32 32 31 31 30 30 30 30 30 30 30 29 29 29 29 29 29 29 29 29 29 28 26 25 24 24
29 30 31 32 34 34 35 34 34 34 34 34 33 32 32 32 32 31 30 30 29 29 28 28 28 28 28 28 28 29 29 29 29 29 28 27 27 26 25 24 23 23 22
30 30 30 31 32 34 34 34 34 33 33 33 33 33 32 31 30 30 29 29 28 28 28 27 27 27 27 27 27 27 27 27 27 27 26 25 24 23 23 22 22 22 22
31 31 30 31 31 32 33 33 33 33 33 33 33 32 32 31 30 30 29 28 28 27 27 27 27 26 26 26 26 26 25 24 24 24 24 24 23 23 23 23 21 21 22
31 32 32 31 31 31 32 32 33 34 34 34 33 32 32 31 30 30 29 28 27 27 27 26 26 25 25 24 24 24 24 23 23 23 23 23 23 23 23 22 21 20 20
31 32 32 32 31 31 31 31 32 33 33 33 33 32 32 31 30 30 29 28 27 26 26 25 25 25 24 23 23 23 23 24 24 24 24 24 23 23 22 21 19 19 19
31 31 31 31 31 31 31 31 31 32 32 32 32 32 31 30 29 29 28 28 27 26 26 25 25 25 25 24 24 23 23 24 25 25 24 23 23 22 20 19 19 19 19
29 30 30 31 31 30 30 31 31 31 31 30 30 30 30 30 29 28 27 27 26 26 26 25 24 24 24 24 24 24 24 24 24 23 22 21 20 19 19 19 20 20 20
Wind_Direction
235 237 238 239 241 242 244 246 248 249 251 253 256 257 258 259 260 263 265 268 269 271 274 277 279 280 281 282 284 285 287 287 287 287 288 289 290 290 290 290 291 291 290
235 237 238 239 241 243 244 246 248 249 251 253 255 257 257 258 260 263 265 268 271 273 275 277 279 280 281 282 284 285 286 287 287 288 288 289 290 291 291 292 292 292 292
235 236 237 239 241 243 244 246 247 249 250 252 254 256 257 258 261 263 266 269 272 274 276 278 279 280 281 283 284 285 286 287 288 289 290 290 290 291 292 293 294 293 293
235 236 237 239 241 243 244 245 246 248 249 251 253 255 258 259 261 263 266 269 272 275 277 279 280 280 282 283 284 285 286 287 288 289 290 291 293 293 294 294 294 295 294
235 236 237 239 241 242 244 245 245 246 248 251 253 256 258 259 260 263 266 269 272 275 278 280 280 281 282 283 284 285 286 288 289 290 291 293 294 295 295 296 296 296 296
235 236 237 238 240 241 243 245 246 247 248 251 254 256 258 259 261 264 267 270 272 275 278 280 281 281 282 282 283 284 286 288 289 291 291 293 294 295 296 297 298 298 298
235 236 237 238 239 241 243 245 246 247 249 251 253 256 258 260 262 265 268 271 273 275 277 279 280 280 281 282 282 284 286 288 289 290 292 294 295 296 298 298 298 298 300
235 235 236 237 239 241 243 244 246 248 250 251 253 256 259 261 263 265 268 270 273 275 277 279 279 279 280 280 282 283 285 287 289 291 292 294 295 296 298 298 298 299 301
236 236 237 238 239 240 242 244 246 248 249 251 253 256 259 261 263 265 268 270 273 275 276 278 279 279 279 280 282 283 285 286 289 291 293 294 296 297 298 299 299 300 302
236 236 237 238 239 240 242 244 246 248 250 252 254 256 258 261 263 266 268 271 273 275 276 278 279 279 280 282 283 283 284 286 289 291 293 294 297 298 299 299 301 302 303
236 237 238 239 240 241 242 244 246 248 250 252 254 256 258 260 263 266 269 272 274 274 275 277 279 280 280 281 283 283 285 286 288 290 292 294 297 298 300 301 301 302 302
237 237 237 239 240 242 243 244 245 247 250 252 254 257 258 260 263 265 268 271 273 274 275 276 279 280 280 280 282 283 285 287 288 290 291 293 295 297 299 301 303 303 303
238 238 238 239 240 242 243 244 246 247 250 252 254 256 258 260 263 264 267 270 272 273 275 276 278 280 281 281 281 282 284 286 288 291 292 293 295 296 298 301 303 303 304
237 238 239 240 240 242 243 245 246 247 249 252 254 256 258 260 262 264 266 269 271 272 274 275 278 280 282 281 281 281 283 285 288 291 293 293 294 296 298 300 301 303 304
237 239 240 240 241 242 244 245 246 248 250 252 254 256 258 260 262 264 266 268 270 271 272 275 277 280 282 282 281 281 282 285 288 291 293 293 294 296 298 300 301 303 303
238 239 240 241 241 242 244 245 246 248 251 253 255 257 258 260 262 264 266 268 269 270 272 274 276 279 281 281 281 280 282 285 288 290 291 293 294 295 298 301 302 303 304
238 238 240 240 240 242 243 245 247 249 251 253 255 257 258 261 262 263 266 267 268 270 272 274 275 277 279 281 282 281 281 284 287 289 290 292 293 294 297 299 301 303 306
238 239 240 241 241 242 244 246 248 250 252 254 255 257 258 260 261 264 266 267 269 270 271 272 274 276 278 279 280 282 282 283 286 288 289 291 293 294 295 298 300 303 304
241 241 242 243 244 243 244 246 249 251 252 254 255 256 258 259 261 264 265 266 268 270 271 272 274 276 277 277 278 280 282 283 285 288 290 292 293 294 295 297 299 301 302
243 244 244 245 246 246 246 247 249 251 252 253 255 256 257 259 262 263 264 266 267 268 270 272 274 276 277 277 278 280 282 283 284 287 289 292 295 294 293 295 297 299 301
245 245 246 246 247 247 248 248 250 250 251 253 255 257 258 260 261 262 264 266 268 269 270 271 274 275 276 277 279 281 283 284 284 285 287 290 292 292 292 294 297 299 301
247 246 247 248 248 249 249 249 250 250 251 253 255 256 257 259 260 261 263 265 267 269 270 270 271 274 275 277 279 281 283 284 285 285 286 288 289 290 293 293 294 296 299
248 249 249 249 250 251 250 250 250 251 252 252 254 255 256 257 259 260 262 264 266 267 269 269 270 272 274 276 277 278 280 282 284 285 285 286 287 289 290 290 290 292 295
250 249 249 250 251 252 251 250 250 251 252 253 253 254 255 256 258 260 262 262 264 265 266 267 268 270 272 274 277 279 279 282 283 283 284 283 283 286 287 286 286 289 292
251 250 249 250 251 251 251 251 251 251 252 253 253 252 252 255 257 258 260 261 262 262 264 266 268 270 272 274 278 281 283 283 283 283 283 282 281 282 283 285 287 289 292
250 248 248 249 249 250 251 251 250 250 250 251 250 251 253 254 256 258 259 260 260 261 263 265 267 269 272 274 276 279 282 284 282 282 283 283 281 277 279 284 288 290 292
Height
5734 5738 5741 5745 5748 5751 5754 5757 5759 5761 5762 5764 5766 5767 5768 5769 5770 5771 5771 5771 5771 5771 5770 5769 5768 5766 5765 5764 5762 5760 5758 5756 5754 5753 5751 5748 5745 5742 5739 5736 5733 5731 5728
5726 5730 5734 5737 5741 5744 5747 5749 5752 5754 5756 5757 5759 5760 5761 5762 5763 5763 5764 5764 5764 5763 5763 5761 5760 5759 5757 5756 5754 5752 5750 5748 5746 5744 5742 5740 5738 5734 5731 5727 5724 5721 5719
5718 5723 5726 5730 5733 5737 5739 5742 5744 5746 5748 5750 5751 5753 5754 5755 5756 5757 5757 5757 5756 5756 5755 5753 5752 5751 5749 5748 5746 5744 5742 5740 5737 5735 5733 5730 5728 5726 5723 5719 5715 5712 5709
5710 5714 5718 5722 5726 5729 5731 5734 5736 5739 5741 5742 5744 5746 5747 5748 5749 5749 5749 5749 5749 5748 5747 5746 5744 5743 5741 5739 5737 5735 5733 5731 5729 5726 5723 5721 5718 5716 5715 5712 5707 5703 5700
5702 5706 5710 5714 5718 5721 5724 5726 5729 5731 5733 5735 5737 5738 5739 5740 5741 5742 5742 5741 5741 5740 5739 5738 5736 5734 5733 5731 5729 5727 5725 5723 5720 5718 5715 5713 5710 5707 5704 5703 5700 5696 5692
5693 5697 5702 5706 5709 5713 5716 5718 5721 5724 5726 5728 5729 5731 5732 5733 5734 5734 5734 5734 5733 5732 5731 5729 5728 5726 5724 5723 5721 5719 5717 5715 5712 5709 5707 5704 5702 5698 5695 5693 5691 5688 5684
5685 5689 5693 5698 5701 5705 5708 5711 5714 5716 5718 5720 5722 5723 5724 5725 5726 5726 5726 5726 5725 5724 5723 5721 5719 5718 5716 5714 5712 5710 5708 5706 5704 5701 5699 5696 5693 5690 5687 5684 5681 5679 5676
5677 5681 5685 5689 5693 5697 5700 5703 5705 5708 5710 5712 5714 5715 5716 5717 5718 5718 5718 5718 5717 5716 5714 5713 5711 5709 5707 5706 5704 5702 5700 5698 5696 5694 5691 5688 5685 5682 5678 5675 5672 5670 5668
5669 5673 5677 5681 5685 5688 5691 5694 5697 5700 5702 5704 5706 5707 5708 5709 5710 5710 5709 5709 5708 5707 5706 5704 5702 5700 5699 5697 5696 5694 5692 5690 5688 5686 5683 5680 5677 5674 5670 5667 5663 5660 5657
5660 5664 5668 5672 5676 5679 5683 5686 5688 5691 5694 5696 5698 5699 5700 5701 5701 5701 5701 5700 5700 5698 5697 5696 5694 5692 5691 5689 5688 5686 5684 5682 5680 5678 5675 5673 5670 5666 5662 5659 5655 5651 5648
5652 5656 5660 5663 5667 5671 5674 5677 5680 5683 5685 5687 5689 5690 5691 5692 5692 5693 5692 5692 5691 5690 5689 5688 5686 5684 5683 5681 5680 5678 5676 5674 5672 5670 5668 5665 5662 5658 5655 5651 5648 5644 5640
5644 5647 5651 5655 5658 5662 5665 5668 5671 5674 5676 5678 5680 5681 5682 5683 5683 5684 5683 5683 5682 5682 5681 5679 5678 5676 5675 5673 5671 5670 5668 5666 5664 5662 5659 5657 5654 5651 5648 5644 5641 5637 5633
5636 5640 5643 5646 5650 5654 5657 5660 5663 5665 5667 5669 5671 5672 5673 5674 5674 5675 5675 5674 5674 5673 5672 5671 5669 5668 5666 5664 5663 5661 5659 5658 5656 5654 5651 5649 5646 5644 5641 5637 5634 5630 5626
5628 5632 5635 5638 5642 5645 5648 5651 5654 5656 5658 5660 5662 5663 5664 5665 5665 5666 5666 5665 5665 5664 5663 5662 5661 5659 5657 5655 5654 5652 5651 5649 5648 5646 5643 5641 5639 5636 5633 5630 5627 5623 5619
5620 5624 5627 5630 5634 5637 5640 5643 5646 5648 5650 5651 5653 5654 5655 5656 5656 5657 5657 5656 5656 5655 5654 5653 5652 5650 5649 5647 5645 5644 5643 5642 5640 5638 5636 5634 5631 5629 5626 5623 5620 5616 5612
5613 5616 5619 5622 5626 5629 5632 5634 5637 5639 5641 5643 5644 5645 5646 5647 5647 5648 5648 5648 5647 5647 5646 5645 5643 5642 5640 5638 5637 5636 5635 5634 5633 5631 5629 5627 5624 5622 5619 5616 5613 5609 5606
5605 5608 5611 5614 5617 5620 5623 5626 5628 5630 5632 5634 5635 5636 5637 5638 5638 5639 5639 5639 5638 5638 5637 5636 5635 5634 5632 5630 5629 5628 5627 5626 5625 5624 5622 5620 5618 5615 5613 5610 5607 5603 5599
5598 5600 5603 5606 5609 5612 5615 5617 5619 5621 5623 5625 5626 5627 5628 5629 5630 5630 5630 5630 5630 5629 5629 5628 5627 5626 5625 5623 5622 5621 5620 5619 5618 5616 5615 5613 5611 5608 5606 5604 5601 5598 5594
5590 5593 5595 5598 5600 5603 5606 5608 5611 5612 5614 5616 5617 5618 5619 5620 5621 5621 5622 5621 5621 5621 5621 5620 5619 5618 5617 5615 5614 5613 5612 5611 5610 5609 5608 5606 5604 5602 5600 5598 5596 5593 5590
5583 5585 5588 5589 5592 5594 5597 5600 5602 5603 5605 5607 5608 5609 5611 5612 5613 5613 5613 5613 5613 5613 5613 5612 5611 5610 5609 5608 5607 5606 5605 5604 5603 5602 5601 5599 5597 5595 5594 5592 5590 5588 5586
5576 5578 5580 5582 5584 5586 5588 5591 5593 5595 5597 5598 5600 5601 5602 5603 5604 5605 5605 5605 5606 5605 5605 5605 5604 5603 5602 5601 5600 5599 5598 5597 5596 5595 5594 5593 5591 5590 5588 5587 5585 5583 5582
5568 5570 5572 5574 5576 5577 5579 5582 5584 5586 5588 5590 5591 5592 5594 5595 5596 5597 5597 5598 5598 5598 5598 5597 5597 5596 5595 5594 5594 5593 5592 5591 5590 5589 5588 5587 5586 5585 5583 5582 5580 5578 5577
5560 5562 5564 5566 5567 5569 5571 5573 5575 5577 5579 5581 5582 5584 5585 5587 5588 5589 5589 5590 5590 5590 5590 5590 5590 5589 5589 5588 5587 5586 5586 5585 5584 5584 5582 5581 5580 5579 5578 5577 5575 5573 5572
5551 5553 5555 5557 5559 5560 5562 5564 5566 5568 5570 5572 5574 5575 5577 5579 5580 5581 5582 5582 5583 5583 5583 5584 5584 5583 5583 5583 5582 5581 5580 5579 5578 5577 5576 5575 5574 5573 5572 5571 5570 5569 5568
5541 5544 5546 5548 5550 5552 5553 5555 5557 5559 5561 5563 5565 5567 5569 5570 5572 5573 5574 5575 5576 5576 5577 5577 5577 5577 5577 5577 5576 5575 5574 5573 5572 5571 5570 5569 5568 5568 5567 5566 5565 5564 5563
5532 5534 5536 5539 5541 5543 5545 5546 5548 5550 5553 5555 5556 5558 5560 5562 5564 5565 5566 5567 5568 5569 5570 5570 5571 5570 5570 5569 5569 5568 5568 5566 5565 5565 5564 5563 5563 5562 5562 5561 5561 5559 5558